VU36VU-14 Weather Reports


time (UTC)temp
C
wind
direction
speed
KPH
gust
KPH
rain 1hr
cm
rain 24hr
cm
rain mn
cm
humidity
%
barometer
mb
20260505054706 36 337 17.7 69.2 0.00 1.37 0.00 33 1008.0
20260505054506 36 337 17.7 69.2 0.00 1.37 0.00 33 1008.0
20260505054306 35 340 17.7 66.0 0.00 1.37 0.00 35 1009.0
20260505054106 35 340 17.7 66.0 0.00 1.37 0.00 35 1009.0
20260505053907 35 340 17.7 66.0 0.00 1.37 0.00 35 1009.0
20260505053706 35 340 17.7 66.0 0.00 1.37 0.00 35 1009.0
20260505053506 35 340 17.7 66.0 0.00 1.37 0.00 35 1009.0
20260505053106 35 340 17.7 66.0 0.00 1.37 0.00 35 1009.0
20260505052906 35 343 16.1 64.4 0.00 1.37 0.00 37 1009.0
20260505052706 35 343 16.1 64.4 0.00 1.37 0.00 37 1009.0
20260505052507 35 343 16.1 64.4 0.00 1.37 0.00 37 1009.0
20260505052306 35 343 16.1 64.4 0.00 1.37 0.00 37 1009.0
20260505052106 35 343 16.1 64.4 0.00 1.37 0.00 37 1009.0
20260505051906 35 343 16.1 64.4 0.00 1.37 0.00 37 1009.0
20260505051706 35 343 16.1 64.4 0.00 1.37 0.00 37 1009.0
20260505051506 35 343 16.1 64.4 0.00 1.37 0.00 37 1009.0
20260505051307 35 346 16.1 62.8 0.00 1.37 0.00 39 1009.0
20260505050906 35 346 16.1 62.8 0.00 1.37 0.00 39 1009.0
20260505050706 35 346 16.1 62.8 0.00 1.37 0.00 39 1009.0
20260505050506 35 346 16.1 62.8 0.00 1.37 0.00 39 1009.0
20260505050306 35 346 16.1 62.8 0.00 1.37 0.00 39 1009.0
20260505050108 35 346 16.1 62.8 0.00 1.37 0.00 39 1009.0
20260505041706 32 353 16.1 59.5 0.00 1.37 0.00 44 1010.0
20260505041506 32 353 16.1 59.5 0.00 1.37 0.00 44 1010.0
20260505041306 32 355 17.7 59.5 0.00 1.37 0.00 46 1010.0
20260505041106 32 355 17.7 59.5 0.00 1.37 0.00 46 1010.0
20260505040906 32 355 17.7 59.5 0.00 1.37 0.00 46 1010.0
20260505040706 32 355 17.7 59.5 0.00 1.37 0.00 46 1010.0
20260505040307 32 355 17.7 59.5 0.00 1.37 0.00 46 1010.0
20260505040108 32 355 17.7 59.5 0.00 1.37 0.00 46 1010.0
20260505035906 32 355 17.7 57.9 0.00 1.37 0.00 47 1010.0
20260505035707 32 355 17.7 57.9 0.00 1.37 0.00 47 1010.0
20260505035506 32 355 17.7 57.9 0.00 1.37 0.00 47 1010.0
20260505035306 32 355 17.7 57.9 0.00 1.37 0.00 47 1010.0
20260505035106 32 355 17.7 57.9 0.00 1.37 0.00 47 1010.0
20260505034906 32 355 17.7 57.9 0.00 1.37 0.00 47 1010.0
20260505034707 32 355 17.7 57.9 0.00 1.37 0.00 47 1010.0
20260505034508 32 355 17.7 57.9 0.00 1.37 0.00 47 1010.0
20260505034128 31 353 17.7 54.7 0.00 1.37 0.00 48 1010.0
20260505033928 31 353 17.7 54.7 0.00 1.37 0.00 48 1010.0
20260505033547 31 353 17.7 54.7 0.00 1.37 0.00 48 1010.0
20260505033146 31 353 17.7 54.7 0.00 1.37 0.00 48 1010.0
20260505032946 31 353 17.7 53.1 0.00 1.37 0.00 50 1010.0
20260505032746 31 353 17.7 53.1 0.00 1.37 0.00 50 1010.0
20260505032546 31 353 17.7 53.1 0.00 1.37 0.00 50 1010.0
20260505032346 31 353 17.7 53.1 0.00 1.37 0.00 50 1010.0
20260505032146 31 353 17.7 53.1 0.00 1.37 0.00 50 1010.0
20260505031946 31 353 17.7 53.1 0.00 1.37 0.00 50 1010.0
20260505031746 31 353 17.7 53.1 0.00 1.37 0.00 50 1010.0
20260505031546 31 353 17.7 53.1 0.00 1.37 0.00 50 1010.0
20260505031347 30 354 16.1 51.5 0.00 1.37 0.00 51 1010.0
20260505030946 30 354 16.1 51.5 0.00 1.37 0.00 51 1010.0
20260505030746 30 354 16.1 51.5 0.00 1.37 0.00 51 1010.0
20260505030546 30 354 16.1 51.5 0.00 1.37 0.00 51 1010.0
20260505030346 30 354 16.1 51.5 0.00 1.37 0.00 51 1010.0
20260505030146 30 354 16.1 51.5 0.00 1.37 0.00 51 1010.0
20260505025946 30 358 16.1 48.3 0.00 1.37 0.00 52 1010.0
20260505025746 30 358 16.1 48.3 0.00 1.37 0.00 52 1010.0
20260505025546 30 358 16.1 48.3 0.00 1.37 0.00 52 1010.0
20260505025346 30 358 16.1 48.3 0.00 1.37 0.00 52 1010.0
20260505024946 30 358 16.1 48.3 0.00 1.37 0.00 52 1010.0
20260505024747 30 358 16.1 48.3 0.00 1.37 0.00 52 1010.0
20260505024546 30 358 16.1 48.3 0.00 1.37 0.00 52 1010.0
20260505024346 30 2 14.5 43.5 0.00 1.37 0.00 52 1010.0
20260505024146 30 2 14.5 43.5 0.00 1.37 0.00 52 1010.0
20260505023946 30 2 14.5 43.5 0.00 1.37 0.00 52 1010.0
20260505023746 30 2 14.5 43.5 0.00 1.37 0.00 52 1010.0
20260505023546 30 2 14.5 43.5 0.00 1.37 0.00 52 1010.0
20260505023346 30 2 14.5 43.5 0.00 1.37 0.00 52 1010.0
20260505023147 30 2 14.5 43.5 0.00 1.37 0.00 52 1010.0
20260505022746 29 9 12.9 37.0 0.00 1.37 0.00 53 1009.0
20260505022546 29 9 12.9 37.0 0.00 1.37 0.00 53 1009.0
20260505022346 29 9 12.9 37.0 0.00 1.37 0.00 53 1009.0
20260505022146 29 9 12.9 37.0 0.00 1.37 0.00 53 1009.0
20260505021946 29 9 12.9 37.0 0.00 1.37 0.00 53 1009.0
20260505021746 29 9 12.9 37.0 0.00 1.37 0.00 53 1009.0
20260505021546 29 9 12.9 37.0 0.00 1.37 0.00 53 1009.0
20260505021346 29 15 12.9 33.8 0.00 1.37 0.00 54 1009.0
20260505021147 29 15 12.9 33.8 0.00 1.37 0.00 54 1009.0
20260505020746 29 15 12.9 33.8 0.00 1.37 0.00 54 1009.0
20260505020546 29 15 12.9 33.8 0.00 1.37 0.00 54 1009.0
20260505020346 29 15 12.9 33.8 0.00 1.37 0.00 54 1009.0
20260505020146 29 15 12.9 33.8 0.00 1.37 0.00 54 1009.0
20260505015946 29 21 11.3 33.8 0.00 1.37 0.00 54 1009.0
20260505015746 29 21 11.3 33.8 0.00 1.37 0.00 54 1009.0
20260505015546 29 21 11.3 33.8 0.00 1.37 0.00 54 1009.0
20260505015346 29 21 11.3 33.8 0.00 1.37 0.00 54 1009.0
20260505015146 29 21 11.3 33.8 0.00 1.37 0.00 54 1009.0
20260505014746 29 21 11.3 33.8 0.00 1.37 0.00 54 1009.0
20260505014546 29 21 11.3 33.8 0.00 1.37 0.00 54 1009.0
20260505014346 28 29 11.3 32.2 0.00 1.37 0.00 55 1009.0
20260505014146 28 29 11.3 32.2 0.00 1.37 0.00 55 1009.0
20260505013946 28 29 11.3 32.2 0.00 1.37 0.00 55 1009.0
20260505013746 28 29 11.3 32.2 0.00 1.37 0.00 55 1009.0
20260505013546 28 29 11.3 32.2 0.00 1.37 0.00 55 1009.0
20260505013346 28 29 11.3 32.2 0.00 1.37 0.00 55 1009.0
20260505013146 28 138 8.0 32.2 0.00 1.37 0.00 55 1009.0
20260505012746 28 141 11.3 32.2 0.00 1.37 0.00 56 1009.0
20260505012546 28 141 11.3 32.2 0.00 1.37 0.00 56 1009.0
20260505012346 28 141 11.3 32.2 0.00 1.37 0.00 56 1009.0
20260505012146 28 141 11.3 32.2 0.00 1.37 0.00 56 1009.0
20260505011946 28 141 11.3 32.2 0.00 1.37 0.00 56 1009.0
20260505011746 28 236 16.1 32.2 0.00 1.37 0.00 56 1009.0
20260505011546 28 236 16.1 32.2 0.00 1.37 0.00 56 1009.0
20260505011346 28 232 16.1 32.2 0.00 1.37 0.00 56 1009.0
20260505011146 28 232 16.1 32.2 0.00 1.37 0.00 56 1009.0
20260505010946 28 232 16.1 33.8 0.00 1.37 0.00 56 1009.0
20260505010346 28 232 16.1 33.8 0.00 1.37 0.00 56 1009.0
20260505010147 28 232 16.1 33.8 0.00 1.37 0.00 56 1009.0
20260505005750 28 228 16.1 32.2 0.00 1.37 0.00 57 1009.0
20260505005547 28 228 16.1 32.2 0.00 1.37 0.00 57 1009.0
20260505005147 28 228 16.1 32.2 0.00 1.37 0.00 55 1009.0
20260505004747 28 228 16.1 32.2 0.00 1.37 0.00 55 1009.0
20260505004346 28 222 16.1 32.2 0.00 1.37 0.00 56 1009.0
20260505004146 28 222 16.1 32.2 0.00 1.37 0.00 56 1009.0
20260505003946 28 222 16.1 32.2 0.00 1.37 0.00 56 1009.0
20260505003746 28 222 16.1 32.2 0.00 1.37 0.00 56 1009.0
20260505003546 28 222 16.1 32.2 0.00 1.37 0.00 56 1009.0
20260505003346 28 222 16.1 32.2 0.00 1.37 0.00 56 1009.0
20260505003146 28 222 16.1 32.2 0.00 1.37 0.00 56 1009.0
20260505002946 28 216 14.5 30.6 0.00 1.37 0.00 56 1008.0
20260505002746 28 216 14.5 30.6 0.00 1.37 0.00 56 1008.0
20260505002547 28 216 14.5 30.6 0.00 1.37 0.00 56 1008.0
20260505002147 28 216 14.5 30.6 0.00 1.37 0.00 56 1008.0
20260505001947 28 216 14.5 30.6 0.00 1.37 0.00 56 1008.0
20260505001747 28 216 14.5 30.6 0.00 1.37 0.00 56 1008.0
20260505001547 28 216 14.5 30.6 0.00 1.37 0.00 56 1008.0
20260505001347 28 214 16.1 29.0 0.00 1.37 0.00 56 1008.0
20260505001147 28 214 16.1 29.0 0.00 1.37 0.00 56 1008.0
20260505000947 28 214 16.1 29.0 0.00 1.37 0.00 56 1008.0
20260505000747 28 214 16.1 29.0 0.00 1.37 0.00 56 1008.0
20260505000547 28 214 16.1 29.0 0.00 1.37 0.00 56 1008.0
20260505000350 28 214 16.1 29.0 0.00 1.37 0.00 68 1008.0
20260504235947 28 215 16.1 29.0 0.00 1.37 0.00 68 1008.0
20260504235747 28 215 16.1 29.0 0.00 1.37 0.00 68 1008.0
20260504235547 28 215 16.1 29.0 0.00 1.37 0.00 68 1008.0
20260504235347 28 215 16.1 29.0 0.00 1.37 0.00 68 1008.0
20260504235147 28 215 16.1 29.0 0.00 1.37 0.00 68 1008.0
20260504234947 28 215 16.1 29.0 0.00 1.37 0.00 68 1008.0
20260504234747 28 215 16.1 29.0 0.00 1.37 0.00 68 1008.0
20260504234547 28 215 16.1 29.0 0.00 1.37 0.00 68 1008.0
20260504234347 28 220 16.1 30.6 0.00 1.37 0.00 68 1008.0
20260504233946 28 220 16.1 30.6 0.00 1.37 0.00 68 1008.0
20260504233746 28 220 16.1 30.6 0.00 1.37 0.00 68 1008.0
20260504233547 28 220 16.1 30.6 0.00 1.37 0.00 68 1008.0
20260504233346 28 220 16.1 30.6 0.00 1.37 0.00 68 1008.0
20260504233146 28 220 16.1 30.6 0.00 1.37 0.00 68 1008.0
20260504232946 28 222 16.1 30.6 0.00 1.37 0.00 67 1008.0
20260504232746 28 222 16.1 30.6 0.00 1.37 0.00 67 1008.0
20260504232547 28 222 16.1 30.6 0.00 1.37 0.00 67 1008.0
20260504232346 28 222 16.1 30.6 0.00 1.37 0.00 67 1008.0
20260504232147 28 222 16.1 30.6 0.00 1.37 0.00 67 1008.0
20260504231747 28 222 16.1 30.6 0.00 1.37 0.00 67 1008.0
20260504231546 28 222 16.1 30.6 0.00 1.37 0.00 67 1008.0
20260504231346 29 225 16.1 29.0 0.00 1.37 0.00 66 1008.0
20260504231146 29 225 16.1 29.0 0.00 1.37 0.00 66 1008.0
20260504230947 29 225 16.1 29.0 0.00 1.37 0.00 66 1008.0
20260504230747 29 225 16.1 29.0 0.00 1.37 0.00 66 1008.0
20260504230547 29 225 16.1 29.0 0.00 1.37 0.00 66 1008.0
20260504230346 29 225 16.1 29.0 0.00 1.37 0.00 66 1008.0
20260504230146 29 225 16.1 29.0 0.00 1.37 0.00 66 1008.0
20260504225747 29 225 14.5 27.4 0.00 1.37 0.00 63 1008.0
20260504225547 29 225 14.5 27.4 0.00 1.37 0.00 63 1008.0
20260504225347 29 225 14.5 27.4 0.00 1.37 0.00 63 1008.0
20260504225147 29 225 14.5 27.4 0.00 1.37 0.00 63 1008.0
20260504224947 29 225 14.5 27.4 0.00 1.37 0.00 63 1008.0
20260504224747 29 225 14.5 27.4 0.00 1.37 0.00 63 1008.0
20260504224547 29 225 14.5 27.4 0.00 1.37 0.00 63 1008.0
20260504224347 29 223 11.3 24.1 0.00 1.37 0.00 59 1008.0
20260504224147 29 223 11.3 24.1 0.00 1.37 0.00 59 1008.0
20260504223947 29 223 11.3 24.1 0.00 1.37 0.00 59 1008.0
20260504223546 29 223 11.3 24.1 0.00 1.37 0.00 59 1008.0
20260504223351 29 223 11.3 24.1 0.00 1.37 0.00 59 1008.0
20260504223147 29 223 11.3 24.1 0.00 1.37 0.00 59 1008.0
20260504222947 30 225 9.7 20.9 0.00 1.37 0.00 55 1008.0
20260504222747 30 225 9.7 20.9 0.00 1.37 0.00 55 1008.0
20260504222547 30 225 9.7 20.9 0.00 1.37 0.00 55 1008.0
20260504222347 30 225 9.7 20.9 0.00 1.37 0.00 55 1008.0
20260504222146 30 225 9.7 20.9 0.00 1.37 0.00 55 1008.0
20260504221947 30 225 9.7 20.9 0.00 1.37 0.00 55 1008.0
20260504221747 30 225 9.7 20.9 0.00 1.37 0.00 55 1008.0
20260504221346 30 228 6.4 17.7 0.00 1.37 0.00 52 1008.0
20260504221146 30 228 6.4 17.7 0.00 1.37 0.00 52 1008.0
20260504220947 30 228 6.4 17.7 0.00 1.37 0.00 52 1008.0
20260504220747 30 228 6.4 17.7 0.00 1.37 0.00 52 1008.0
20260504220547 30 228 6.4 17.7 0.00 1.37 0.00 52 1008.0
20260504220347 30 228 6.4 17.7 0.00 1.37 0.00 52 1008.0
20260504220147 30 228 6.4 17.7 0.00 1.37 0.00 52 1008.0
20260504215947 30 249 3.2 17.7 0.00 1.37 0.00 51 1008.0
20260504215748 30 249 3.2 17.7 0.00 1.37 0.00 51 1008.0
20260504215547 30 249 3.2 17.7 0.00 1.37 0.00 51 1008.0
20260504215147 30 249 3.2 17.7 0.00 1.37 0.00 51 1008.0
20260504214947 30 249 3.2 17.7 0.00 1.37 0.00 51 1008.0
20260504214747 30 249 3.2 17.7 0.00 1.37 0.00 51 1008.0
20260504214547 30 249 3.2 17.7 0.00 1.37 0.00 51 1008.0
20260504214347 30 300 3.2 19.3 0.00 1.37 0.00 49 1007.0
20260504214147 30 300 3.2 19.3 0.00 1.37 0.00 49 1007.0
20260504212948 30 337 6.4 20.9 0.00 1.37 0.00 48 1007.0
20260504212547 30 337 6.4 20.9 0.00 1.37 0.00 48 1007.0
20260504212347 30 337 6.4 20.9 0.00 1.37 0.00 48 1007.0
20260504212147 30 337 6.4 20.9 0.00 1.37 0.00 48 1007.0
20260504211947 30 337 6.4 20.9 0.00 1.37 0.00 48 1007.0
20260504211746 30 337 6.4 20.9 0.00 1.37 0.00 48 1007.0
20260504211547 30 337 6.4 20.9 0.00 1.37 0.00 48 1007.0
20260504211348 30 347 9.7 20.9 0.00 1.37 0.00 47 1007.0
20260504211147 30 347 9.7 20.9 0.00 1.37 0.00 47 1007.0
20260504210947 30 347 9.7 20.9 0.00 1.37 0.00 47 1007.0
20260504210547 30 347 9.7 20.9 0.00 1.37 0.00 47 1007.0
20260504210347 30 347 9.7 20.9 0.00 1.37 0.00 47 1007.0
20260504210147 30 347 9.7 20.9 0.00 1.37 0.00 47 1007.0
20260504205947 31 351 9.7 20.9 0.00 1.37 0.00 46 1007.0
20260504205747 31 351 9.7 20.9 0.00 1.37 0.00 46 1007.0
20260504205547 31 351 9.7 20.9 0.00 1.37 0.00 46 1007.0
20260504205347 31 351 9.7 20.9 0.00 1.37 0.00 46 1007.0
20260504205147 31 351 9.7 20.9 0.00 1.37 0.00 46 1007.0
20260504204947 31 351 9.7 20.9 0.00 1.37 0.00 46 1007.0
20260504204747 31 351 9.7 20.9 0.00 1.37 0.00 46 1007.0
20260504204347 31 354 9.7 20.9 0.00 1.37 0.00 46 1007.0
20260504204147 31 354 9.7 20.9 0.00 1.37 0.00 46 1007.0
20260504203947 31 354 9.7 20.9 0.00 1.37 0.00 46 1007.0
20260504203747 31 354 9.7 20.9 0.00 1.37 0.00 46 1007.0
20260504203547 31 354 9.7 20.9 0.00 1.37 0.00 46 1007.0
20260504203347 31 354 9.7 20.9 0.00 1.37 0.00 46 1007.0
20260504203147 31 354 9.7 20.9 0.00 1.37 0.00 46 1007.0
20260504202947 31 357 9.7 19.3 0.00 1.37 0.00 45 1007.0
20260504202748 31 357 9.7 19.3 0.00 1.37 0.00 45 1007.0
20260504202547 31 357 9.7 19.3 0.00 1.37 0.00 45 1007.0
20260504202147 31 357 9.7 19.3 0.00 1.37 0.00 45 1007.0
20260504201947 31 357 9.7 19.3 0.00 1.37 0.00 45 1007.0
20260504201747 31 357 9.7 19.3 0.00 1.37 0.00 45 1007.0
20260504201547 31 357 9.7 19.3 0.00 1.37 0.00 45 1007.0
20260504201347 31 357 9.7 19.3 0.00 1.37 0.00 45 1008.0
20260504201147 31 357 9.7 19.3 0.00 1.37 0.00 45 1008.0
20260504200947 31 357 9.7 19.3 0.00 1.37 0.00 45 1008.0
20260504200749 31 357 9.7 19.3 0.00 1.37 0.00 45 1008.0
20260504200547 31 357 9.7 19.3 0.00 1.37 0.00 45 1008.0
20260504200147 31 357 9.7 19.3 0.00 1.37 0.00 45 1008.0
20260504195947 31 349 8.0 19.3 0.00 1.37 0.00 45 1008.0
20260504195747 31 4 8.0 19.3 0.00 1.37 0.00 45 1008.0
20260504195547 31 4 8.0 19.3 0.00 1.37 0.00 45 1008.0
20260504195347 31 4 8.0 19.3 0.00 1.37 0.00 45 1008.0
20260504195147 31 4 8.0 19.3 0.00 1.37 0.00 45 1008.0
20260504194947 31 4 8.0 19.3 0.00 1.37 0.00 45 1008.0
20260504194747 31 4 8.0 19.3 0.00 1.37 0.00 45 1008.0
20260504194547 31 4 8.0 19.3 0.00 1.37 0.00 45 1008.0
20260504194347 31 360 6.4 17.7 0.00 1.37 0.00 45 1008.0
20260504191347 28 9 3.2 9.7 0.00 1.37 0.00 53 1008.0
20260504191147 28 9 3.2 9.7 0.00 0.13 0.08 53 1009.0
20260504190947 28 9 3.2 9.7 0.00 0.13 0.08 65 1009.0
20260504190747 28 9 3.2 9.7 0.00 0.13 0.08 65 1009.0
20260504190547 28 9 3.2 9.7 0.00 0.13 0.08 65 1009.0
20260504190347 28 9 3.2 9.7 0.00 0.13 0.08 65 1009.0
20260504190147 28 9 3.2 9.7 0.00 0.13 0.08 65 1009.0
20260504185947 28 22 1.6 14.5 0.00 1.70 0.76 65 1009.0
20260504185747 28 22 1.6 14.5 0.00 1.70 0.76 65 1009.0
20260504185547 28 22 1.6 14.5 0.00 1.70 0.76 65 1009.0
20260504183152 27 51 3.2 17.7 0.00 1.70 0.76 66 1009.0
20260504182947 27 67 3.2 22.5 0.00 1.70 0.76 67 1010.0
20260504182747 27 67 3.2 22.5 0.00 1.70 0.76 67 1010.0
20260504182547 27 67 3.2 22.5 0.00 1.70 0.76 67 1010.0
20260504182346 27 67 3.2 22.5 0.00 1.70 0.76 67 1010.0
20260504182147 27 67 3.2 22.5 0.00 1.70 0.76 67 1010.0
20260504181947 27 67 3.2 22.5 0.00 1.70 0.76 67 1010.0
20260504181546 27 67 3.2 22.5 0.00 1.70 0.76 67 1010.0
20260504181347 27 84 4.8 27.4 0.00 1.70 0.76 68 1010.0
20260504181147 27 84 4.8 27.4 0.00 1.70 0.76 68 1010.0
20260504180946 27 84 4.8 27.4 0.00 1.70 0.76 68 1010.0
20260504180747 27 84 4.8 27.4 0.00 1.70 0.76 68 1010.0
20260504180547 27 84 4.8 27.4 0.00 1.70 0.76 68 1010.0
20260504180347 27 84 4.8 27.4 0.00 1.70 0.76 68 1010.0
20260504180148 27 84 4.8 27.4 0.00 1.70 0.76 68 1010.0
20260504175947 27 94 6.4 29.0 0.00 1.70 0.76 67 1010.0
20260504175649 27 94 6.4 29.0 0.00 1.70 0.76 67 1010.0
20260504175448 27 94 6.4 29.0 0.00 1.70 0.76 67 1010.0
20260504175248 27 94 6.4 29.0 0.00 1.70 0.76 67 1010.0
20260504175048 27 94 6.4 29.0 0.00 1.70 0.76 67 1010.0
20260504174849 27 94 6.4 29.0 0.00 1.70 0.76 67 1010.0
20260504174649 27 94 6.4 29.0 0.00 1.70 0.76 67 1010.0
20260504174449 27 100 9.7 30.6 0.00 1.70 0.76 67 1010.0
20260504174249 27 100 9.7 30.6 0.00 1.70 0.76 67 1010.0
20260504173709 27 100 9.7 30.6 0.00 1.70 0.76 67 1010.0
20260504173509 27 100 9.7 30.6 0.00 1.70 0.76 67 1010.0
20260504173309 27 100 9.7 30.6 0.00 1.70 0.76 67 1010.0
20260504173110 27 100 9.7 30.6 0.00 1.70 0.76 67 1010.0
20260504172731 27 103 11.3 32.2 0.00 1.70 0.76 66 1010.0
20260504172530 27 103 11.3 32.2 0.00 1.70 0.76 66 1010.0
20260504172331 27 103 11.3 32.2 0.00 1.70 0.76 66 1010.0
20260504172131 27 103 11.3 32.2 0.00 1.70 0.76 66 1010.0
20260504171731 27 103 11.3 32.2 0.00 1.70 0.76 66 1010.0
20260504171531 27 103 11.3 32.2 0.00 1.70 0.76 66 1010.0
20260504171331 27 103 14.5 37.0 0.00 1.70 0.76 66 1010.0
20260504171131 27 103 14.5 37.0 0.00 1.70 0.76 66 1010.0
20260504170931 27 103 14.5 37.0 0.00 1.70 0.76 66 1010.0
20260504170731 27 103 14.5 37.0 0.00 1.70 0.76 66 1010.0
20260504170531 27 103 14.5 37.0 0.00 1.70 0.76 66 1010.0
20260504170332 27 103 14.5 37.0 0.00 1.70 0.76 66 1010.0
20260504170131 27 103 14.5 37.0 0.00 1.70 0.76 66 1010.0
20260504160331 27 92 19.3 66.0 0.00 1.70 0.76 68 1010.0
20260504160131 27 92 19.3 66.0 0.00 1.70 0.76 68 1010.0
20260504150931 26 142 38.6 98.2 0.00 1.70 0.76 77 1009.0
20260504150731 26 142 38.6 98.2 0.00 1.70 0.76 77 1009.0
20260504150531 26 142 38.6 98.2 0.00 1.70 0.76 77 1009.0
20260504150331 26 142 38.6 98.2 0.00 1.70 0.76 77 1009.0
20260504150132 26 142 38.6 98.2 0.00 1.70 0.76 77 1009.0
20260504141331 24 145 54.7 144.8 0.15 1.70 0.76 88 1009.0
20260504141131 24 145 54.7 144.8 0.15 1.70 0.76 88 1009.0
20260504140931 24 145 54.7 144.8 0.15 1.70 0.76 88 1009.0
20260504140731 24 145 54.7 144.8 0.15 1.70 0.76 88 1009.0
20260504140436 24 145 54.7 144.8 0.15 1.70 0.76 88 1009.0
20260504140237 24 156 49.9 144.8 0.15 1.70 0.76 88 1009.0
20260504130636 30 120 49.9 122.3 0.00 1.70 0.76 51 1007.0
20260504130437 30 120 49.9 122.3 0.00 1.70 0.00 51 1007.0
20260504120237 32 249 70.8 149.7 0.00 1.55 0.00 47 1006.0
20260504110714 37 110 14.5 51.5 0.00 1.55 0.00 29 1004.0
20260504110200 37 110 14.5 51.5 0.00 1.55 0.00 29 1004.0
20260504100559 40 16 3.2 59.5 0.00 1.55 0.00 28 1003.0
20260504100400 40 16 3.2 59.5 0.00 1.55 0.00 28 1003.0
20260504100200 40 16 3.2 59.5 0.00 1.55 0.00 28 1003.0
20260504081859 39 183 9.7 59.5 0.00 1.55 0.00 30 1005.0
20260504081459 39 189 9.7 59.5 0.00 1.55 0.00 31 1005.0
20260504081259 39 191 8.0 59.5 0.00 1.55 0.00 31 1005.0
20260504081059 39 191 8.0 59.5 0.00 1.55 0.00 31 1005.0
20260504080859 39 191 8.0 59.5 0.00 1.55 0.00 31 1005.0
20260504080659 39 191 8.0 59.5 0.00 1.55 0.00 31 1005.0
20260504080459 39 191 8.0 59.5 0.00 1.55 0.00 31 1005.0
20260504080259 39 191 8.0 59.5 0.00 1.55 0.00 31 1005.0
20260504070259 38 253 6.4 61.2 0.00 0.36 1.37 32 1006.0
20260504060134 37 294 11.3 62.8 0.00 0.36 1.37 36 1008.0